Weather History for Independence, KS

Change the Weather History Date:

Sunday, April 7, 2013

  Actual Average (KCFV) Record (KCFV)
Temperature  
Mean Temperature 58 °F -  
Max Temperature 73 °F 64 °F 82 °F (1999)
Min Temperature 44 °F 41 °F 25 °F (2009)
Degree Days  
Heating Degree Days 6    
Growing Degree Days 8 (Base 50)    
Moisture  
Dew Point 54 °F    
Average Humidity 80    
Maximum Humidity 100    
Minimum Humidity 61    
Precipitation  
Precipitation 0.00 in - - ()
Sea Level Pressure  
Sea Level Pressure 29.80 in    
Wind  
Wind Speed 7 mph (South)    
Max Wind Speed 23 mph    
Max Gust Speed 29 mph    
Visibility 10 miles    
Events Rain    
Averages and records for this station are not official NWS values.
T = Trace of Precipitation, MM = Missing Value Source: NWS Daily Summary

Daily Weather History Graph

Daily Weather History Graph

Search for Another Location

Airport:

Trip Planner

Search our weather history database for the weather conditions in past years. The results will help you decide how hot, cold, wet, or windy it might be!

Date:

Astronomy

Apr. 07, 2013 Rise Set
Actual Time 6:59 AM CDT 7:51 PM CDT
Civil Twilight 6:33 AM CDT 8:17 PM CDT
Nautical Twilight 6:01 AM CDT 8:49 PM CDT
Astronomical Twilight 5:29 AM CDT 9:21 PM CDT
Moon 5:14 AM CDT (4/7) 5:27 PM CDT (4/7)
Length of Visible Light 13h 44m
Length of Day
12h 51m
Waning Crescent, 8% of the Moon is Illuminated
Apr 7
Waning Crescent
Apr 10
New
Apr 18
First Quarter
Apr 25
Full
May 2
Last Quarter

Hourly Weather History & Observations

Time (CDT) Temp. Windchill Dew Point Humidity Pressure Visibility Wind Dir Wind Speed Gust Speed Precip Events Conditions
12:15 AM 59.0 °F - 48.2 °F 67% 29.85 in 10.0 mi SSW 4.6 mph - N/A   Clear
12:35 AM 55.4 °F - 48.2 °F 77% 29.85 in 10.0 mi Calm Calm - N/A   Clear
12:55 AM 55.4 °F - 48.2 °F 77% 29.86 in 10.0 mi West 4.6 mph - N/A   Clear
1:15 AM 55.4 °F - 48.2 °F 77% 29.86 in 10.0 mi Calm Calm - N/A   Clear
1:35 AM 59.0 °F - 48.2 °F 67% 29.86 in 10.0 mi Calm Calm - N/A   Clear
1:55 AM 53.6 °F - 46.4 °F 77% 29.85 in 10.0 mi Calm Calm - N/A   Clear
2:15 AM 51.8 °F - 46.4 °F 82% 29.86 in 10.0 mi South 5.8 mph - N/A   Clear
2:35 AM 51.8 °F - 46.4 °F 82% 29.85 in 10.0 mi South 4.6 mph - N/A   Clear
2:55 AM 51.8 °F - 46.4 °F 82% 29.85 in 10.0 mi Calm Calm - N/A   Clear
3:15 AM 51.8 °F - 46.4 °F 82% 29.85 in 10.0 mi Calm Calm - N/A   Clear
3:35 AM 51.8 °F - 46.4 °F 82% 29.85 in 10.0 mi WSW 4.6 mph - N/A   Clear
3:55 AM 53.6 °F - 46.4 °F 77% 29.85 in 10.0 mi WSW 3.5 mph - N/A   Clear
4:15 AM 50.0 °F - 46.4 °F 87% 29.85 in 10.0 mi Calm Calm - N/A   Clear
4:35 AM 50.0 °F - 46.4 °F 87% 29.85 in 10.0 mi South 3.5 mph - N/A   Clear
4:55 AM 48.2 °F - 44.6 °F 87% 29.85 in 10.0 mi Calm Calm - N/A   Clear
5:15 AM 50.0 °F - 46.4 °F 87% 29.85 in 10.0 mi Calm Calm - N/A   Clear
5:35 AM 50.0 °F - 46.4 °F 87% 29.85 in 10.0 mi Calm Calm - N/A   Clear
5:55 AM 48.2 °F - 44.6 °F 87% 29.85 in 10.0 mi Calm Calm - N/A   Clear
6:15 AM 46.4 °F - 44.6 °F 93% 29.85 in 10.0 mi Calm Calm - N/A   Clear
6:35 AM 46.4 °F - 44.6 °F 93% 29.86 in 10.0 mi Calm Calm - N/A   Clear
6:55 AM 44.6 °F - 44.6 °F 100% 29.86 in 10.0 mi Calm Calm - N/A   Clear
7:15 AM 44.6 °F 43.1 °F 42.8 °F 93% 29.87 in 10.0 mi South 3.5 mph - N/A   Clear
7:35 AM 44.6 °F 43.1 °F 42.8 °F 93% 29.87 in 10.0 mi South 3.5 mph - N/A   Clear
7:55 AM 46.4 °F - 44.6 °F 93% 29.87 in 10.0 mi Calm Calm - N/A   Clear
8:15 AM 50.0 °F - 48.2 °F 94% 29.87 in 10.0 mi Calm Calm - N/A   Clear
8:35 AM 51.8 °F - 50.0 °F 94% 29.88 in 10.0 mi South 4.6 mph - N/A   Clear
8:55 AM 55.4 °F - 51.8 °F 88% 29.88 in 10.0 mi South 5.8 mph - N/A   Clear
9:15 AM 59.0 °F - 53.6 °F 82% 29.88 in 10.0 mi South 4.6 mph - N/A   Clear
9:35 AM 62.6 °F - 57.2 °F 82% 29.88 in 10.0 mi SSW 9.2 mph - N/A   Clear
9:55 AM 62.6 °F - 55.4 °F 77% 29.87 in 10.0 mi South 11.5 mph - N/A   Clear
10:15 AM 64.4 °F - 55.4 °F 73% 29.87 in 10.0 mi South 10.4 mph - N/A   Clear
10:35 AM 64.4 °F - 57.2 °F 77% 29.87 in 10.0 mi South 9.2 mph - N/A   Clear
10:55 AM 64.4 °F - 57.2 °F 77% 29.87 in 10.0 mi SSE 8.1 mph - N/A   Clear
11:15 AM 64.4 °F - 57.2 °F 77% 29.87 in 10.0 mi SSE 6.9 mph - N/A   Clear
11:35 AM 66.2 °F - 57.2 °F 73% 29.87 in 10.0 mi SE 8.1 mph - N/A   Clear
11:55 AM 68.0 °F - 57.2 °F 68% 29.87 in 10.0 mi SE 8.1 mph - N/A   Clear
12:15 PM 68.0 °F - 59.0 °F 73% 29.86 in 10.0 mi South 10.4 mph - N/A   Clear
12:35 PM 68.0 °F - 57.2 °F 68% 29.85 in 10.0 mi SE 13.8 mph - N/A   Clear
12:55 PM 68.0 °F - 57.2 °F 68% 29.83 in 10.0 mi SSE 11.5 mph - N/A   Clear
1:15 PM 68.0 °F - 57.2 °F 68% 29.82 in 10.0 mi SSE 15.0 mph - N/A   Scattered Clouds
1:35 PM 69.8 °F - 59.0 °F 68% 29.80 in 10.0 mi SE 13.8 mph - N/A   Scattered Clouds
1:55 PM 69.8 °F - 59.0 °F 68% 29.79 in 10.0 mi SSE 12.7 mph - N/A   Mostly Cloudy
2:15 PM 71.6 °F - 59.0 °F 64% 29.77 in 10.0 mi SSE 16.1 mph 19.6 mph N/A   Mostly Cloudy
2:35 PM 71.6 °F - 59.0 °F 64% 29.75 in 10.0 mi SSE 15.0 mph - N/A   Mostly Cloudy
2:55 PM 71.6 °F - 59.0 °F 64% 29.75 in 10.0 mi SSE 12.7 mph - N/A   Mostly Cloudy
3:15 PM 71.6 °F - 59.0 °F 64% 29.74 in 10.0 mi South 23.0 mph 28.8 mph N/A   Mostly Cloudy
3:35 PM 73.4 °F - 59.0 °F 61% 29.73 in 10.0 mi SSE 16.1 mph 21.9 mph N/A   Scattered Clouds
3:55 PM 71.6 °F - 59.0 °F 64% 29.72 in 10.0 mi South 18.4 mph 25.3 mph N/A   Mostly Cloudy
4:15 PM 69.8 °F - 59.0 °F 68% 29.72 in 10.0 mi SSW 17.3 mph 27.6 mph N/A   Overcast
4:35 PM 69.8 °F - 59.0 °F 68% 29.71 in 10.0 mi South 18.4 mph 25.3 mph N/A   Overcast
4:55 PM 68.0 °F - 59.0 °F 73% 29.72 in 10.0 mi South 19.6 mph 24.2 mph N/A   Overcast
5:15 PM 68.0 °F - 59.0 °F 73% 29.72 in 10.0 mi SSW 15.0 mph - N/A   Overcast
5:35 PM 68.0 °F - 57.2 °F 68% 29.72 in 10.0 mi South 17.3 mph 28.8 mph N/A   Overcast
5:55 PM 66.2 °F - 57.2 °F 73% 29.72 in 10.0 mi South 19.6 mph - N/A   Overcast
6:15 PM 64.4 °F - 57.2 °F 77% 29.72 in 10.0 mi South 17.3 mph 23.0 mph N/A   Overcast
6:35 PM 64.4 °F - 57.2 °F 77% 29.72 in 10.0 mi South 23.0 mph 26.5 mph N/A   Overcast
6:55 PM 64.4 °F - 55.4 °F 73% 29.73 in 10.0 mi South 18.4 mph 28.8 mph N/A   Overcast
7:15 PM 62.6 °F - 57.2 °F 82% 29.74 in 7.0 mi South 21.9 mph 28.8 mph N/A   Overcast
7:35 PM 60.8 °F - 59.0 °F 94% 29.74 in 4.0 mi South 17.3 mph 21.9 mph N/A   Overcast
7:55 PM 60.8 °F - 59.0 °F 94% 29.74 in 4.0 mi South 12.7 mph - N/A   Overcast
8:15 PM 60.8 °F - 59.0 °F 94% 29.73 in 4.0 mi South 10.4 mph - N/A   Light Drizzle
8:35 PM 60.8 °F - 59.0 °F 94% 29.74 in 5.0 mi South 12.7 mph - N/A   Light Drizzle
8:55 PM 60.8 °F - 59.0 °F 94% 29.75 in 5.0 mi South 10.4 mph - N/A Rain Light Rain
9:15 PM 60.8 °F - 59.0 °F 94% 29.74 in 7.0 mi SSE 11.5 mph - N/A   Light Drizzle
9:35 PM 60.8 °F - 59.0 °F 94% 29.74 in 10.0 mi SSE 12.7 mph - N/A   Overcast
9:55 PM 60.8 °F - 59.0 °F 94% 29.74 in 10.0 mi SSE 10.4 mph - N/A   Scattered Clouds
10:15 PM 60.8 °F - 59.0 °F 94% 29.73 in 10.0 mi SSE 12.7 mph - N/A   Scattered Clouds
10:35 PM 60.8 °F - 59.0 °F 94% 29.74 in 10.0 mi South 11.5 mph - N/A   Mostly Cloudy
10:55 PM 60.8 °F - 59.0 °F 94% 29.73 in 10.0 mi South 10.4 mph - N/A   Overcast
11:15 PM 60.8 °F - 57.2 °F 88% 29.73 in 10.0 mi South 12.7 mph 18.4 mph N/A   Overcast
11:35 PM 62.6 °F - 57.2 °F 82% 29.73 in 10.0 mi South 13.8 mph - N/A   Overcast
11:55 PM 60.8 °F - 57.2 °F 88% 29.72 in 10.0 mi South 12.7 mph - N/A   Mostly Cloudy